TimeCST,TemperatureF,Dew PointF,Humidity,Sea Level PressureIn,VisibilityMPH,Wind Direction,Wind SpeedMPH,Gust SpeedMPH,PrecipitationIn,Events,Conditions,WindDirDegrees,DateUTC
12:51 AM,30.0,25.0,82,30.38,10.0,Calm,Calm,-,N/A,,Clear,0,2013-12-23 06:51:00
1:51 AM,27.0,24.1,89,30.39,10.0,Calm,Calm,-,N/A,,Clear,0,2013-12-23 07:51:00
2:51 AM,26.1,23.0,88,30.40,10.0,SW,3.5,-,N/A,,Clear,230,2013-12-23 08:51:00
3:51 AM,27.0,24.1,89,30.40,10.0,SSW,3.5,-,N/A,,Clear,210,2013-12-23 09:51:00
4:51 AM,27.0,24.1,89,30.41,10.0,SW,5.8,-,N/A,,Clear,230,2013-12-23 10:51:00
5:51 AM,27.0,24.1,89,30.42,10.0,WSW,3.5,-,N/A,,Clear,250,2013-12-23 11:51:00
6:51 AM,26.1,23.0,88,30.44,10.0,WSW,4.6,-,N/A,,Clear,240,2013-12-23 12:51:00
7:51 AM,26.1,23.0,88,30.47,10.0,WSW,3.5,-,N/A,,Clear,250,2013-12-23 13:51:00
8:51 AM,30.0,26.1,85,30.49,10.0,Calm,Calm,-,N/A,,Clear,0,2013-12-23 14:51:00
9:51 AM,36.0,28.0,73,30.50,10.0,Calm,Calm,-,N/A,,Clear,0,2013-12-23 15:51:00
10:51 AM,44.1,30.0,58,30.49,10.0,WSW,3.5,-,N/A,,Clear,240,2013-12-23 16:51:00
11:51 AM,48.9,30.9,50,30.47,10.0,SSW,8.1,-,N/A,,Clear,200,2013-12-23 17:51:00
12:51 PM,52.0,32.0,47,30.44,10.0,SSW,11.5,-,N/A,,Clear,210,2013-12-23 18:51:00
1:51 PM,55.0,32.0,42,30.42,10.0,SW,6.9,17.3,N/A,,Clear,220,2013-12-23 19:51:00
2:51 PM,55.9,32.0,40,30.41,10.0,Variable,4.6,-,N/A,,Clear,0,2013-12-23 20:51:00
3:51 PM,57.0,32.0,39,30.41,10.0,West,3.5,-,N/A,,Clear,260,2013-12-23 21:51:00
4:51 PM,57.9,30.9,36,30.41,10.0,Calm,Calm,-,N/A,,Clear,0,2013-12-23 22:51:00
5:51 PM,51.1,32.0,48,30.43,10.0,ESE,3.5,-,N/A,,Clear,110,2013-12-23 23:51:00
6:51 PM,48.0,32.0,54,30.44,10.0,SE,5.8,-,N/A,,Clear,130,2013-12-24 00:51:00
7:51 PM,44.1,32.0,63,30.47,10.0,SSE,4.6,-,N/A,,Clear,150,2013-12-24 01:51:00
8:51 PM,39.0,32.0,76,30.48,10.0,South,6.9,-,N/A,,Clear,170,2013-12-24 02:51:00
9:51 PM,39.0,32.0,76,30.49,10.0,South,5.8,-,N/A,,Clear,190,2013-12-24 03:51:00
10:51 PM,37.0,30.9,79,30.50,10.0,SW,4.6,-,N/A,,Clear,230,2013-12-24 04:51:00
11:51 PM,36.0,30.9,82,30.49,10.0,West,3.5,-,N/A,,Clear,280,2013-12-24 05:51:00